Regional Weather Roundup
Issued by NWS

Home | Current Version | Previous Version | Text Only | Print | Product List | Glossary Off
Versions: 1 2 3 4 5 6 7 8 9 10 11 12 13 14 15 16 17 18 19 20 21 22 23 24 25 26 27 28 29 30 31 32 33 34 35 36 37 38 39 40 41 42 43 44 45 46 47 48 49 50

000
ASUS43 KMKX 171611
RWRWI

WISCONSIN REGIONAL WEATHER ROUNDUP
NATIONAL WEATHER SERVICE MILWAUKEE/SULLIVAN WI
1000 AM CST WED JAN 17 2018

NOTE: "FAIR" INDICATES FEW OR NO CLOUDS BELOW 12,000 FEET WITH NO
SIGNIFICANT WEATHER AND/OR OBSTRUCTIONS TO VISIBILITY.

WIZ001-002-006>008-014>016-023>028-171700-
NORTHWEST WISCONSIN

CITY           SKY/WX    TMP DP  RH WIND       PRES   REMARKS
SUPERIOR ARPT  FAIR      10   0  61 SW15      30.13F WCI  -6
ASHLAND        FAIR      13   0  56 SW20      30.11F WCI  -5
HAYWARD        FAIR       9  -1  64 SW7       30.18F WCI  -2
SIREN          FAIR       9  -1  64 SW12      30.21F WCI  -6
CUMBERLAND     FAIR       9   0  66 SW12      30.22F WCI  -6
RICE LAKE      FAIR       8   1  71 CALM      30.26F
CHETEK         FAIR       7  -1  70 S5        30.27F WCI  -2
LADYSMITH      FAIR       4  -2  78 S9        30.26F WCI -11
EAU CLAIRE     FAIR       7   1  76 S7        30.31F WCI  -5
MENOMONIE      FAIR      11   1  63 S7        30.31F WCI   0
NEW RICHMOND   FAIR      11   0  60 SW10      30.26F WCI  -2
OSCEOLA        FAIR      10   1  67 S6        30.30F WCI   0
$$

WIZ003>005-009-010-017-018-171700-
NORTH CENTRAL WISCONSIN

CITY           SKY/WX    TMP DP  RH WIND       PRES   REMARKS
MANITOWISH WTR FAIR       8  -2  63 SW13      30.12F WCI  -8
ARBOR VITAE    FAIR      13   4  68 SW9G16    30.13F WCI   1
WOODRUFF       FAIR      13   4  68 SW9G16    30.13F WCI   1
RHINELANDER    FAIR      10   0  63 W12G22    30.17F WCI  -5
EAGLE RIVER    FAIR       7  -2  66 SW14      30.13F WCI -10
LAND O LAKES   FAIR      11   2  66 SW7       30.11F WCI   1
PHILLIPS       FAIR       6  -2  70 SW8       30.19F WCI  -7
TOMAHAWK       FAIR       7  -1  69 SW3       30.21F
MEDFORD        FAIR       6  -1  74 SW12      30.25S WCI -10
MERRILL        FAIR       9  -1  65 W9        30.26S WCI  -5
$$

WIZ029-030-035-036-043>047-171700-
CENTRAL WISCONSIN

CITY           SKY/WX    TMP DP  RH WIND       PRES   REMARKS
WAUSAU         FAIR       8  -1  66 W12       30.28S WCI  -7
MOSINEE        PTSUNNY    7   1  78 SW15G21   30.30F WCI -11
MARSHFIELD     FAIR       6   0  76 W13       30.29F WCI -10
STEVENS POINT  FAIR       7  -1  67 SW10      30.33S WCI  -7
WAUPACA        FAIR      14   2  59 SW12      30.36F WCI   0
WAUTOMA        FAIR      12   4  70 SW13      30.39  WCI  -3
WISC RAPIDS    FAIR       7  -1  70 W8        30.36F WCI  -6
CAMP DOUGLAS   PTSUNNY   12   1  62 W8        30.38F WCI   1
$$

WIZ011>013-019>022-031-037>040-048>050-171700-
NORTHEAST WISCONSIN

CITY           SKY/WX    TMP DP  RH WIND       PRES   REMARKS
ANTIGO         FAIR       7   0  70 W15       30.22S WCI -10
SHAWANO        FAIR      12   2  64 SW12      30.30F WCI  -2
OCONTO         FAIR      10   1  66 SW12G21   30.31S WCI  -5
STURGEON BAY   FAIR       9   2  73 W18       30.28F WCI -10
GREEN BAY      FAIR       9   0  67 SW13      30.33F WCI  -7
MANITOWOC      FAIR      13   4  67 W10       30.36F WCI   0
APPLETON       MOSUNNY    7   0  72 SW14G20   30.32F WCI -10
CLINTONVILLE   FAIR      10   1  67 W10       30.33S WCI  -3
OSHKOSH        FAIR       8   0  69 SW7       30.37S WCI  -3
$$

WIZ032>034-041-042-053>061-171700-
SOUTHWEST WISCONSIN

CITY           SKY/WX    TMP DP  RH WIND       PRES   REMARKS
LA CROSSE      FAIR       7  -1  70 S8        30.42F WCI  -6
SPARTA         FAIR       8   4  82 NW3       30.40S
VIROQUA        FAIR       5   3  90 SW9       30.38F WCI  -9
BOSCOBEL       FAIR       8   2  76 SW8       30.49F WCI  -4
PRAIRIE DU CHI FAIR       7  -2  67 CALM      30.49F
PLATTEVILLE    FAIR       8   7  94 SW8       30.48F WCI  -4
$$

WIZ056-057-062-063-064-067-068-171700-
SOUTH CENTRAL WISCONSIN

CITY           SKY/WX    TMP DP  RH WIND       PRES   REMARKS
REEDSBURG      FAIR       8   0  71 SW9       30.42F WCI  -6
BARABOO/DELLS  FAIR       7   1  74 SW10      30.41S WCI  -7
LONE ROCK      FAIR       4   1  88 CALM      30.47F
MINERAL POINT  FAIR      10   9  92 SW9       30.44S WCI  -2
MADISON        PTSUNNY   10   5  80 SW6       30.44F WCI   0
MIDDLETON      FAIR      15   7  70 SW8       30.44F WCI   5
WATERTOWN      FAIR      10   9  99 SW10      30.44S WCI  -4
MONROE         FAIR      10   5  79 SW16G23   30.46S WCI  -7
JANESVILLE     PTSUNNY    7   5  92 SW7       30.50S WCI  -5
$$

WIZ051-052-058>065-066-070>072-171700-
SOUTHEAST WISCONSIN

CITY           SKY/WX    TMP DP  RH WIND       PRES   REMARKS
MILWAUKEE      PTSUNNY   14   6  70 SW12      30.45F WCI   0
WAUKESHA       MOSUNNY    9   1  72 SW10      30.44F WCI  -6
MILWAUKEE/TIMM MOSUNNY   10   3  72 W18G25    30.45S WCI  -8
RACINE         CLOUDY    12   5  73 W12G21    30.49R WCI  -2
BURLINGTON     FAIR       8   4  83 W8        30.49R WCI  -4
KENOSHA        PTSUNNY   12   6  77 W10       30.49R WCI  -1
FOND DU LAC    FAIR      12   1  61 SW15      30.39F WCI  -4
SHEBOYGAN      FAIR      16   4  59 W18       30.36F WCI   0
WEST BEND      FAIR      12   7  79 W12       30.40R WCI  -2
JUNEAU         FAIR       8   5  87 SW12      30.42F WCI  -7
$$

LSZ147-162-171700-
LAKE SUPERIOR

STATION/POSITION TIME  TEMP    WIND        PRES    WAVE
                       AIR SEA DIR/SP/G            HT/PER
                 (UTC) (F)     (DEG/KT/KT) (MB)    (FT/S)
DEVILS ISLAND    1600   15     230/ 28/ 37 1018.4F
SAXON HARBOR     1530   15     200/ 15/ 24 1019.6F
$$

LMZ867-665-643>646-171700-
LAKE MICHIGAN

STATION/POSITION TIME  TEMP    WIND        PRES    WAVE
                       AIR SEA DIR/SP/G            HT/PER
                 (UTC) (F)     (DEG/KT/KT) (MB)    (FT/S)
NORTHPORT PIER   1539   11     240/  6     1023.4F
KEWAUNEE LAKESHO 1548   12     260/ 13/ 17 1025.9F
SHEBOYGAN LAKESH 1600   17     250/ 12/ 17 1030.0F
PORT WASHINGTON  1540   14     250/  6/ 10 1031.5R
MILWAUKEE LAKESH 1550   14     250/ 13/ 18   N/A
KENOSHA   LAKESH 1600   12     260/  8/ 17 1032.5
$$

TC  - TEMPERATURE IN CELSIUS
VSB - VISIBILITY IN STATUTE MILES
WCI - WIND CHILL INDEX
HX  - HEAT INDEX





USA.gov is the U.S. government's official web portal to all federal, state and local government web resources and services.